Flag for Germany Weather past 2 weeks in Heilbronn, Baden-Württemberg, Germany

Now
24 °F

Partly sunny.


Feels Like: 16 °F
Forecast: 18 / 34 °F
Wind: 7 mph from Northeast

Location: Oehringen

Current Time: Dec 28, 2014 at 2:43:47 PM

Latest Report: Dec 28, 2014 at 2:00 PM


Visibility: 9 mi

Pressure: 30.19 "Hg

Humidity: 58%

Dew point: 12 °F

Location of HeilbronnLocation

Historic Weather in Heilbronn — Graph

°F

Heilbronn temperature yesterday

Maximum temperature yesterday: 34 °F (at 9:00 PM)
Minimum temperature yesterday: 31 °F (at 2:00 AM)
Average temperature yesterday: 32 °F

Past Weeks' High & Low Weather Summary

 TemperatureHumidityPressure
High53 °F (Dec 18, 8:00 PM)100% (Dec 15, 4:00 AM)30.54 "Hg (Dec 15, 4:00 AM)
Low24 °F (Dec 28, 1:00 PM)60% (Dec 13, 1:00 PM)29.44 "Hg (Dec 27, 5:00 PM)
Average42 °F87%30.12 "Hg
* Reported Dec 13 1:00 PM — Dec 28 1:00 PM, Heilbronn, Weather by CustomWeather, © 2014

Note: Actual official high and low records may vary slightly from our data, if they occured in-between our weather recording intervals... More about our weather records

Advertising

Heilbronn weather history for previous 24 hours

 ConditionsComfort  
Time TempWeatherWind HumidityBarometerVisibility
1:00 PM
Dec 28
24 °FScattered clouds.6 mph64%30.14 "Hg8 mi
12:00 PM24 °FPartly sunny.8 mph69%30.10 "Hg6 mi
11:00 AM25 °FOvercast.8 mph74%30.05 "Hg6 mi
10:00 AM26 °FOvercast.7 mph78%29.99 "Hg6 mi
9:00 AM26 °FSnow flurries. Overcast.7 mph80%29.95 "Hg5 mi
8:00 AM26 °FOvercast.7 mph81%29.88 "Hg6 mi
7:00 AM26 °FOvercast.8 mph83%29.82 "Hg7 mi
6:00 AM27 °FOvercast.7 mph83%29.77 "Hg7 mi
5:00 AM28 °FOvercast.8 mph82%29.73 "Hg7 mi
4:00 AM28 °FLight snow. Overcast.8 mph85%29.69 "Hg7 mi
3:00 AM28 °FLight snow. Overcast.6 mph86%29.65 "Hg6 mi
2:00 AM28 °FLight snow. Overcast.7 mph90%29.61 "Hg2 mi
1:00 AM30 °FLight snow. Overcast.6 mph90%29.58 "Hg3 mi
12:00 AM32 °FLow clouds.7 mph92%29.55 "Hg4 mi
11:00 PM
Dec 27
33 °FDrizzle. Low clouds.1 mph97%29.53 "Hg3 mi
10:00 PM34 °FFreezing rain. Low clouds.1 mph95%29.50 "Hg5 mi
9:00 PM34 °FLight freezing rain. Overcast.1 mph95%29.47 "Hg5 mi
8:00 PM34 °FDrizzle. Overcast.2 mph95%29.44 "Hg9 mi
7:00 PM34 °FLight rain. Overcast.2 mph94%29.44 "Hg7 mi
6:00 PM34 °FLight freezing rain. Overcast.2 mph96%29.44 "Hg5 mi
5:00 PM34 °FLight rain. Overcast.2 mph95%29.44 "Hg4 mi
4:00 PM34 °FLight rain. Overcast.2 mph92%29.47 "Hg15 mi
3:00 PM33 °FOvercast.5 mph93%29.47 "Hg18 mi
2:00 PM32 °FLight snow. Low clouds.5 mph96%29.47 "Hg1 mi
Weather by CustomWeather, © 2014

See weather overviewHow to use our weather pages